This is the latest recevied weather packets stored in our database for station/object PA3CPS. If no packets are shown the sender has not sent any weather packets the latest 10 day(s).
| Time | Temp. | Humidity | Pressure | Rain* | Wind** | Luminosity | Snow |
|---|---|---|---|---|---|---|---|
| 1777884786 | 15.56° C | 94% | 1012.9 hPa | 0 mm | - | 570 W/m² | - |
| 1777884484 | 14.44° C | 95% | 1012.9 hPa | 0 mm | - | 411 W/m² | - |
| 1777884182 | 14.44° C | 96% | 1013 hPa | 0 mm | - | 373 W/m² | - |
| 1777883883 | 14.44° C | 96% | 1012.9 hPa | 0 mm | - | 153 W/m² | - |
| 1777883582 | 14.44° C | 96% | 1012.9 hPa | 0 mm | - | 183 W/m² | - |
| 1777883282 | 14.44° C | 96% | 1012.8 hPa | 0 mm | - | 230 W/m² | - |
| 1777882982 | 13.89° C | 96% | 1012.7 hPa | 0 mm | - | 248 W/m² | - |
| 1777882683 | 13.89° C | 96% | 1012.7 hPa | 0 mm | - | 199 W/m² | - |
| 1777882382 | 13.89° C | 96% | 1012.8 hPa | 0 mm | - | 162 W/m² | - |
| 1777882082 | 13.89° C | 96% | 1012.9 hPa | 0 mm | - | 181 W/m² | - |
| 1777881782 | 13.89° C | 96% | 1012.8 hPa | 0 mm | - | 160 W/m² | - |
| 1777881482 | 13.89° C | 96% | 1012.9 hPa | 0 mm | - | 206 W/m² | - |
| 1777881183 | 13.89° C | 96% | 1012.9 hPa | 0 mm | - | 172 W/m² | - |
| 1777880883 | 13.89° C | 96% | 1012.7 hPa | 0 mm | - | 111 W/m² | - |
| 1777880584 | 13.89° C | 96% | 1012.6 hPa | 0 mm | - | 141 W/m² | - |
| 1777880277 | 13.33° C | 96% | 1012.7 hPa | 0 mm | - | 193 W/m² | - |
| 1777879975 | 13.33° C | 96% | 1012.7 hPa | 0 mm | - | 174 W/m² | - |
| 1777879674 | 13.33° C | 96% | 1012.7 hPa | 0 mm | - | 123 W/m² | - |
| 1777879373 | 13.33° C | 96% | 1012.6 hPa | 0 mm | - | 128 W/m² | - |
| 1777879064 | 13.33° C | 96% | 1012.5 hPa | 0 mm | - | 118 W/m² | - |
| 1777878755 | 13.33° C | 96% | 1012.4 hPa | 0 mm | - | 123 W/m² | - |
| 1777878457 | 13.33° C | 96% | 1012.4 hPa | 0 mm | - | 135 W/m² | - |
| 1777878152 | 13.33° C | 96% | 1012.3 hPa | 0 mm | - | 130 W/m² | - |
| 1777877853 | 13.33° C | 96% | 1012.4 hPa | 0 mm | - | 100 W/m² | - |
| 1777877552 | 13.33° C | 96% | 1012.2 hPa | 0 mm | - | 84 W/m² | - |
* Rain latest hour (hover to see other rain measurements)
** Current wind speed in m/s (hover to see current wind gust speed)